Regional Weather Roundup
Issued by NWS Memphis, TN

Home | Current Version | Previous Version | Text Only | Print | Product List | Glossary On
Versions: 1 2 3 4 5 6 7 8 9 10 11 12 13 14 15 16 17 18 19 20 21 22 23 24 25 26 27 28 29 30 31 32 33 34 35 36 37 38 39 40 41 42 43 44 45 46 47 48 49 50
103
ASUS44 KMEG 060910
RWRMEG
MEMPHIS CWA HOURLY WEATHER ROUNDUP
NATIONAL WEATHER SERVICE MEMPHIS TN
300 AM CST TUE DEC 06 2016

...WEST TENNESSEE...

CITY           SKY/WX    TMP DP  RH WIND       PRES   REMARKS
MEMPHIS INTL   LGT RAIN  47  46  97 NE7       29.60F FOG
NWS MEMPHIS      N/A     45 N/A N/A MISG        N/A
JACKSON        CLOUDY    47  47 100 VRB3      29.61F
LEXINGTON      CLOUDY    46  46 100 CALM      29.61F
DYERSBURG      CLOUDY   N/A N/A N/A NE8       29.64F
UNION CITY     CLOUDY    43  43 100 CALM      29.64F
PARIS          CLOUDY    43  43 100 NE5       29.64F


...EASTERN ARKANSAS...

CITY           SKY/WX    TMP DP  RH WIND       PRES   REMARKS
JONESBORO      CLOUDY    42  41  96 NW5       29.69R
WEST MEMPHIS   CLOUDY    45  45 100 N7        29.61S
BATESVILLE     CLOUDY    41  39  93 W5        29.74S
NEWPORT        LGT RAIN  41  41 100 NW13      29.72R FOG
WALNUT RIDGE   CLOUDY    41  37  87 N12       29.72R
BLYTHEVILLE    LGT RAIN  45  43  93 N9        29.67R
SEARCY         LGT RAIN  43  43 100 NW6       29.73R
STUTTGART      CLOUDY    45  39  81 NW13      29.69R
PINE BLUFF     LGT RAIN  45  44  97 W10       29.71R
MONTICELLO     RAIN      46  45  96 W9        29.72R FOG


...NORTH MISSISSIPPI...

CITY           SKY/WX    TMP DP  RH WIND       PRES   REMARKS
TUPELO         CLOUDY    56  53  90 E9        29.59F
OXFORD         LGT RAIN  48  48 100 CALM      29.60F
BATESVILLE     LGT RAIN  50  49  97 CALM      29.60F
TUNICA         HVY RAIN  45  45 100 NE9       29.61S
CLARKSDALE     CLOUDY    48  48 100 W9        29.64R FOG
GREENWOOD      CLOUDY    52  52 100 CALM      29.61R
COLUMBUS       CLOUDY    56  56  99 SE5       29.62S
STARKVILLE     CLOUDY    54  54 100 SE3       29.63F FOG
GOLDEN TRIANGL CLOUDY    55  52  88 E7        29.59S


...SOUTHEAST MISSOURI...

CITY           SKY/WX    TMP DP  RH WIND       PRES   REMARKS
KENNETT        RAIN      43  43 100 N14       29.67S
WEST PLAINS    LGT RAIN  40  39  97 CALM      29.74R
POPLAR BLUFF   LGT RAIN  41  40  96 N9        29.72R FOG
CAPE GIRARDEAU RAIN      40  38  93 N8        29.71F FOG     WCI  34


...NORTHWEST ALABAMA...

CITY           SKY/WX    TMP DP  RH WIND       PRES   REMARKS
MUSCLE SHOALS  LGT RAIN  55  53  93 E10       29.64F


...MIDDLE TENNESSEE...

CITY           SKY/WX    TMP DP  RH WIND       PRES   REMARKS
NASHVILLE      LGT RAIN  50  49  96 VRB3      29.65F
CLARKSVILLE    LGT RAIN  45  43  93 NE5       29.66F FOG
COLUMBIA         N/A    N/A N/A N/A SE12      29.64F


...WESTERN KENTUCKY...

CITY           SKY/WX    TMP DP  RH WIND       PRES   REMARKS
PADUCAH        LGT RAIN  42  39  89 NE7       29.67F FOG
FORT CAMPBELL  DRIZZLE   45  45 100 NE5       29.65F FOG


...CENTRAL ARKANSAS...

CITY           SKY/WX    TMP DP  RH WIND       PRES   REMARKS
LITTLE ROCK    CLOUDY    43  43 100 NW9       29.72R FOG


SKY/WX REPORTED AS FAIR MEANS FEW OR NO CLOUDS BELOW
12 THOUSAND FEET.





USA.gov is the U.S. government's official web portal to all federal, state and local government web resources and services.